Terminal Aerodrome Forecast
Issued by NWS Austin/San Antonio, TX

Home | Current Version | Previous Version | Text Only | Print | Product List | Glossary On
Versions: 1 2 3 4 5 6 7 8 9 10 11 12 13 14 15 16 17 18 19 20 21
000
FTUS44 KEWX 150900 AAB
TAFDRT
TAF AMD
KDRT 150932Z 1510/1606 09003KT P6SM BKN024
     FM151200 11004KT P6SM OVC014
     FM151600 15006KT P6SM BKN022
     FM151800 15009KT P6SM SCT035 BKN150=

USA.gov is the U.S. government's official web portal to all federal, state and local government web resources and services.